Precipitable_Water
0.94 0.93 0.91 0.88 0.85 0.82 0.79 0.77 0.77 0.74 0.72 0.71 0.69 0.68 0.70 0.76 0.83 0.91 0.91 0.66 0.60 0.56 0.52 0.50 0.48 0.48 0.46 0.38 0.38 0.60 0.72 0.78 0.77 0.72 0.75 0.75 0.80 0.77 0.67 0.71 0.78 0.78 0.74 0.78 0.83 0.88 0.99
0.95 0.93 0.91 0.88 0.85 0.82 0.79 0.77 0.76 0.75 0.71 0.71 0.70 0.67 0.67 0.72 0.80 0.89 0.92 0.76 0.61 0.57 0.55 0.51 0.49 0.48 0.36 0.30 0.51 0.76 0.76 0.69 0.68 0.65 0.69 0.75 0.74 0.82 0.74 0.72 0.75 0.75 0.75 0.78 0.81 0.85 0.93
0.94 0.92 0.90 0.87 0.84 0.81 0.78 0.77 0.75 0.74 0.73 0.71 0.71 0.67 0.65 0.69 0.79 0.87 0.91 0.84 0.63 0.58 0.56 0.54 0.51 0.44 0.29 0.33 0.54 0.68 0.69 0.59 0.65 0.64 0.62 0.70 0.70 0.76 0.77 0.70 0.80 0.76 0.69 0.70 0.71 0.78 0.81
0.92 0.90 0.88 0.86 0.83 0.79 0.78 0.77 0.74 0.73 0.73 0.72 0.71 0.68 0.65 0.67 0.79 0.86 0.90 0.84 0.65 0.58 0.56 0.54 0.53 0.41 0.20 0.34 0.47 0.54 0.61 0.57 0.59 0.61 0.60 0.68 0.77 0.81 0.78 0.76 0.73 0.69 0.73 0.56 0.61 0.71 0.82
0.89 0.88 0.86 0.84 0.82 0.80 0.78 0.77 0.75 0.73 0.72 0.73 0.70 0.69 0.65 0.65 0.77 0.85 0.90 0.84 0.67 0.61 0.58 0.57 0.48 0.37 0.19 0.34 0.39 0.49 0.57 0.51 0.54 0.52 0.52 0.67 0.70 0.68 0.71 0.61 0.58 0.66 0.53 0.52 0.53 0.63 0.66
0.91 0.90 0.87 0.84 0.82 0.80 0.79 0.78 0.76 0.74 0.73 0.73 0.71 0.69 0.65 0.67 0.74 0.83 0.90 0.86 0.68 0.64 0.58 0.58 0.50 0.32 0.25 0.23 0.37 0.48 0.58 0.58 0.53 0.47 0.43 0.50 0.56 0.58 0.59 0.56 0.49 0.52 0.51 0.50 0.49 0.53 0.55
0.85 0.86 0.88 0.87 0.84 0.81 0.78 0.77 0.76 0.75 0.73 0.73 0.72 0.68 0.66 0.71 0.70 0.82 0.86 0.77 0.43 0.40 0.43 0.32 0.30 0.33 0.32 0.35 0.43 0.46 0.57 0.54 0.55 0.49 0.39 0.48 0.47 0.49 0.55 0.55 0.58 0.56 0.50 0.45 0.51 0.54 0.61
0.85 0.84 0.83 0.84 0.85 0.83 0.80 0.77 0.73 0.74 0.73 0.75 0.73 0.69 0.66 0.74 0.69 0.80 0.87 0.62 0.43 0.53 0.34 0.38 0.37 0.44 0.38 0.36 0.35 0.44 0.55 0.46 0.45 0.40 0.43 0.41 0.41 0.54 0.55 0.58 0.56 0.51 0.42 0.42 0.47 0.52 0.62
0.88 0.85 0.83 0.82 0.81 0.81 0.80 0.78 0.74 0.73 0.72 0.75 0.74 0.70 0.67 0.73 0.72 0.71 0.74 0.58 0.71 0.65 0.42 0.38 0.49 0.45 0.43 0.39 0.37 0.39 0.50 0.48 0.42 0.39 0.39 0.36 0.45 0.49 0.52 0.56 0.51 0.46 0.40 0.35 0.44 0.52 0.70
0.89 0.87 0.85 0.84 0.81 0.82 0.80 0.79 0.76 0.72 0.72 0.75 0.75 0.70 0.69 0.73 0.61 0.62 0.68 0.64 0.75 0.68 0.35 0.34 0.44 0.49 0.50 0.49 0.38 0.46 0.51 0.48 0.41 0.39 0.40 0.38 0.45 0.47 0.52 0.53 0.48 0.40 0.45 0.44 0.47 0.50 0.45
0.93 0.90 0.87 0.86 0.82 0.81 0.82 0.80 0.78 0.73 0.71 0.75 0.76 0.70 0.71 0.75 0.67 0.56 0.71 0.69 0.74 0.64 0.29 0.41 0.45 0.60 0.52 0.44 0.44 0.41 0.51 0.42 0.36 0.36 0.39 0.40 0.45 0.51 0.51 0.51 0.48 0.44 0.49 0.49 0.50 0.48 0.50
0.95 0.95 0.93 0.89 0.86 0.82 0.83 0.82 0.80 0.74 0.71 0.76 0.75 0.70 0.73 0.72 0.71 0.72 0.77 0.74 0.70 0.47 0.35 0.40 0.48 0.46 0.43 0.44 0.43 0.40 0.41 0.43 0.44 0.41 0.40 0.46 0.56 0.55 0.54 0.54 0.51 0.48 0.45 0.45 0.45 0.43 0.40
0.93 0.93 0.94 0.94 0.90 0.86 0.83 0.84 0.81 0.74 0.71 0.76 0.74 0.71 0.73 0.77 0.66 0.84 0.73 0.61 0.45 0.40 0.52 0.43 0.40 0.45 0.45 0.44 0.42 0.37 0.33 0.33 0.36 0.35 0.37 0.44 0.47 0.53 0.56 0.49 0.49 0.44 0.36 0.32 0.31 0.32 0.33
0.95 0.94 0.95 0.95 0.92 0.90 0.84 0.85 0.82 0.74 0.70 0.76 0.79 0.75 0.79 0.83 0.86 0.81 0.65 0.50 0.39 0.46 0.47 0.49 0.45 0.45 0.42 0.44 0.44 0.45 0.42 0.40 0.46 0.47 0.42 0.40 0.38 0.48 0.51 0.47 0.43 0.40 0.38 0.34 0.29 0.30 0.32
0.97 0.98 0.97 0.96 0.95 0.92 0.87 0.87 0.83 0.74 0.71 0.79 0.84 0.73 0.72 0.79 0.83 0.80 0.52 0.40 0.45 0.49 0.52 0.45 0.44 0.41 0.41 0.44 0.45 0.46 0.47 0.46 0.49 0.50 0.43 0.41 0.42 0.48 0.49 0.49 0.45 0.40 0.36 0.40 0.34 0.32 0.30
1.02 1.05 1.03 0.99 0.97 0.95 0.91 0.87 0.84 0.74 0.73 0.86 0.80 0.68 0.69 0.85 0.86 0.67 0.47 0.43 0.48 0.57 0.56 0.50 0.41 0.45 0.40 0.43 0.43 0.44 0.44 0.51 0.47 0.51 0.53 0.50 0.42 0.48 0.47 0.48 0.45 0.41 0.43 0.33 0.34 0.28 0.28
1.10 1.12 1.10 1.05 0.99 0.98 0.93 0.88 0.86 0.77 0.75 0.95 0.82 0.62 0.74 0.86 0.84 0.53 0.42 0.44 0.49 0.60 0.60 0.52 0.47 0.46 0.48 0.46 0.46 0.46 0.48 0.58 0.61 0.59 0.57 0.52 0.47 0.47 0.47 0.44 0.44 0.40 0.37 0.37 0.36 0.34 0.30
1.18 1.17 1.14 1.09 1.02 1.01 0.96 0.89 0.88 0.80 0.75 0.93 0.83 0.58 0.76 0.81 0.54 0.51 0.47 0.49 0.52 0.61 0.65 0.59 0.58 0.54 0.53 0.56 0.49 0.49 0.53 0.58 0.66 0.63 0.54 0.58 0.50 0.44 0.47 0.50 0.50 0.47 0.44 0.43 0.37 0.39 0.40
1.18 1.17 1.15 1.10 1.04 1.03 0.99 0.91 0.89 0.82 0.74 0.90 0.82 0.71 0.80 0.75 0.45 0.46 0.53 0.53 0.55 0.58 0.60 0.60 0.58 0.61 0.62 0.57 0.54 0.59 0.60 0.65 0.66 0.64 0.58 0.59 0.50 0.42 0.44 0.45 0.49 0.45 0.50 0.49 0.46 0.42 0.36
1.18 1.18 1.15 1.12 1.07 1.05 1.02 0.93 0.89 0.82 0.74 0.94 0.82 0.60 0.66 0.66 0.59 0.52 0.53 0.55 0.53 0.62 0.60 0.63 0.63 0.65 0.60 0.56 0.60 0.56 0.57 0.61 0.65 0.65 0.63 0.63 0.51 0.45 0.39 0.50 0.55 0.48 0.48 0.48 0.45 0.38 0.40
1.22 1.20 1.17 1.12 1.10 1.07 1.05 0.95 0.89 0.82 0.77 0.88 0.83 0.70 0.71 0.51 0.50 0.53 0.57 0.58 0.53 0.54 0.62 0.65 0.60 0.61 0.59 0.55 0.56 0.56 0.57 0.55 0.57 0.59 0.60 0.57 0.46 0.49 0.50 0.49 0.48 0.47 0.47 0.48 0.43 0.43 0.39
1.24 1.23 1.21 1.15 1.12 1.09 1.06 0.98 0.90 0.85 0.82 0.67 0.74 0.77 0.77 0.71 0.63 0.55 0.54 0.56 0.55 0.58 0.61 0.59 0.60 0.61 0.63 0.59 0.59 0.54 0.55 0.53 0.49 0.49 0.45 0.45 0.37 0.41 0.38 0.45 0.43 0.38 0.46 0.47 0.50 0.51 0.51
1.24 1.24 1.22 1.19 1.15 1.11 1.07 1.02 0.93 0.88 0.83 0.65 0.69 0.89 0.83 0.75 0.65 0.55 0.55 0.56 0.57 0.62 0.63 0.65 0.64 0.60 0.57 0.58 0.62 0.61 0.57 0.55 0.48 0.40 0.38 0.36 0.32 0.34 0.27 0.38 0.38 0.32 0.42 0.49 0.51 0.56 0.53
1.24 1.25 1.22 1.19 1.17 1.14 1.10 1.05 0.98 0.90 0.87 0.81 0.70 0.71 0.71 0.63 0.68 0.61 0.59 0.59 0.58 0.64 0.62 0.65 0.65 0.61 0.65 0.68 0.58 0.51 0.49 0.49 0.45 0.41 0.39 0.39 0.34 0.34 0.29 0.35 0.22 0.46 0.56 0.51 0.44 0.48 0.52
1.20 1.24 1.24 1.20 1.17 1.16 1.14 1.09 1.01 0.94 0.90 0.82 0.80 0.69 0.61 0.58 0.64 0.66 0.65 0.63 0.62 0.64 0.62 0.62 0.66 0.71 0.72 0.57 0.45 0.41 0.41 0.43 0.46 0.49 0.44 0.43 0.42 0.36 0.29 0.30 0.41 0.46 0.50 0.47 0.44 0.46 0.57
1.14 1.22 1.23 1.23 1.21 1.19 1.16 1.10 1.04 0.99 0.92 0.84 0.80 0.83 0.71 0.53 0.57 0.66 0.62 0.66 0.63 0.61 0.62 0.63 0.71 0.75 0.66 0.53 0.45 0.37 0.34 0.40 0.41 0.42 0.51 0.49 0.48 0.39 0.39 0.28 0.27 0.52 0.57 0.57 0.55 0.34 0.65
1.08 1.16 1.21 1.24 1.24 1.24 1.22 1.13 1.05 0.99 0.93 0.86 0.80 0.87 0.78 0.58 0.60 0.67 0.58 0.56 0.60 0.56 0.54 0.60 0.61 0.62 0.62 0.49 0.41 0.37 0.34 0.45 0.35 0.36 0.39 0.40 0.41 0.35 0.36 0.31 0.43 0.55 0.56 0.56 0.31 0.46 0.64
1.02 1.08 1.15 1.20 1.24 1.28 1.22 1.13 1.07 1.01 0.95 0.87 0.80 0.89 0.77 0.65 0.63 0.66 0.72 0.66 0.63 0.60 0.52 0.61 0.52 0.54 0.53 0.44 0.42 0.42 0.37 0.42 0.39 0.45 0.42 0.38 0.33 0.31 0.32 0.26 0.24 0.59 0.50 0.37 0.53 0.57 0.53
0.97 1.05 1.09 1.14 1.22 1.21 1.19 1.15 1.07 1.02 0.97 0.91 0.73 0.89 0.91 0.72 0.67 0.76 0.75 0.80 0.73 0.67 0.58 0.55 0.61 0.60 0.61 0.50 0.47 0.48 0.39 0.42 0.41 0.34 0.46 0.33 0.35 0.35 0.31 0.36 0.54 0.53 0.49 0.56 0.59 0.57 0.62
Wind_Speed
13 14 14 13 14 13 13 13 13 13 12 11 10 9 7 6 6 6 7 7 7 8 8 7 8 8 9 10 8 7 7 9 12 10 8 6 4 2 1 1 2 1 6 7 7 6 5
14 14 14 14 14 14 14 14 14 14 13 12 11 9 7 6 6 6 6 7 7 7 8 8 8 9 10 11 8 7 7 10 11 10 8 7 3 2 3 2 2 6 7 6 5 6 5
14 14 14 14 14 14 14 15 15 15 14 13 11 10 8 6 6 6 6 6 7 7 7 8 8 9 11 10 9 7 8 10 11 10 8 6 5 4 2 3 3 6 5 4 5 6 5
14 14 14 14 15 15 15 16 15 15 15 14 12 10 8 6 5 5 5 6 7 7 7 7 7 8 9 11 10 9 9 10 10 9 7 6 5 5 4 4 4 3 2 4 7 5 6
15 15 15 15 15 15 16 16 16 16 16 14 12 10 8 6 5 5 5 5 7 7 7 7 7 8 8 10 12 12 11 9 10 9 7 6 5 5 4 4 3 3 4 6 6 6 8
16 16 16 16 16 16 17 17 17 17 16 14 12 10 8 6 5 5 5 6 7 7 7 6 7 7 8 10 12 12 11 10 9 9 7 7 6 6 6 4 1 3 6 7 8 9 8
17 17 17 17 17 18 18 18 18 18 17 14 12 10 7 5 5 6 6 6 7 7 9 6 6 5 7 9 13 13 13 10 9 9 9 8 8 9 4 2 2 3 4 7 8 7 10
18 18 18 19 19 19 19 19 19 18 17 14 12 9 7 5 5 8 8 7 5 5 7 9 7 6 8 9 13 14 13 11 10 10 8 7 10 6 5 5 4 3 5 5 5 7 6
20 20 20 20 20 20 20 20 20 18 16 14 12 9 6 5 6 9 10 8 7 4 6 7 9 7 7 10 12 16 15 11 10 10 9 9 5 5 6 5 5 4 4 4 7 8 2
22 22 22 22 21 21 21 21 20 19 16 14 11 8 5 5 6 9 10 10 8 4 7 8 9 7 9 8 10 13 15 12 9 9 8 8 8 9 8 6 5 5 1 3 5 6 5
23 23 24 24 23 22 22 21 21 19 17 14 10 8 5 8 5 9 9 12 8 6 7 9 9 8 9 8 10 13 15 11 10 10 8 5 7 9 9 7 4 4 4 4 4 5 4
25 25 25 25 25 24 22 22 21 20 17 14 10 8 7 7 8 9 10 12 9 8 5 9 10 11 12 9 7 11 14 11 7 8 10 10 7 6 6 5 7 6 7 8 6 5 3
26 27 27 26 26 25 24 22 22 21 18 14 9 8 9 7 7 10 12 12 10 7 8 9 12 14 13 10 9 12 13 14 9 9 10 9 11 10 7 9 9 9 7 4 5 4 3
28 28 28 28 27 26 24 23 22 21 18 13 8 8 10 9 9 12 13 11 10 8 7 9 13 15 12 12 9 11 12 11 12 8 5 6 9 10 6 7 3 5 6 4 4 2 2
29 29 29 28 27 25 24 23 21 20 16 9 7 8 10 9 11 13 13 12 7 8 8 11 13 16 11 13 8 10 10 10 8 12 6 6 5 7 5 4 5 6 5 1 2 3 3
30 30 30 28 26 25 23 22 20 19 14 6 6 8 10 11 11 13 12 9 9 8 9 12 13 14 14 14 10 9 9 5 8 9 11 4 5 7 6 5 5 5 2 4 4 3 4
30 30 29 27 25 24 22 21 19 18 12 4 6 8 10 12 12 13 12 10 10 9 11 12 11 12 12 12 12 10 8 7 5 6 9 9 7 6 8 10 6 6 8 7 6 7 8
30 29 28 26 23 23 21 19 18 17 11 5 6 7 11 12 12 12 13 11 9 9 12 12 11 11 13 11 11 10 9 6 7 8 8 11 8 9 7 6 8 8 9 9 10 6 7
30 29 27 24 22 21 20 18 17 15 10 5 6 6 11 12 12 14 13 12 11 9 11 12 11 11 11 10 8 9 8 7 7 8 8 9 10 10 10 9 10 12 10 11 12 13 14
30 28 25 23 21 20 19 17 16 15 9 6 7 7 9 12 11 12 13 13 13 10 11 11 11 12 12 10 9 9 9 9 9 9 9 10 13 13 13 6 8 10 12 12 15 15 15
30 27 23 21 20 19 18 16 15 14 8 6 7 7 7 10 13 13 13 13 14 12 12 12 11 11 11 11 11 10 10 11 11 12 13 14 17 17 17 16 17 17 16 16 16 18 16
29 26 22 20 20 19 17 15 14 13 8 4 7 7 8 8 10 13 13 14 14 14 13 12 13 11 11 11 11 11 12 12 12 11 14 14 16 16 20 17 17 18 15 16 15 16 18
28 25 22 21 19 18 16 13 12 11 7 3 5 8 9 9 10 12 13 13 13 14 13 12 13 13 12 11 12 13 14 14 14 14 13 13 13 14 17 13 15 19 17 14 15 15 16
27 25 23 21 19 17 15 13 12 10 8 4 4 7 9 9 11 11 11 13 13 13 13 13 13 14 12 13 12 12 11 11 11 13 15 13 13 13 12 11 15 9 10 11 13 14 13
26 24 23 22 20 17 15 13 11 10 8 5 5 6 8 10 10 12 12 11 13 13 13 13 12 12 13 12 11 10 11 11 8 8 11 12 12 10 12 14 9 12 11 12 13 13 14
25 24 23 22 20 17 15 13 11 10 8 5 5 6 8 9 9 11 12 13 13 14 13 13 12 12 13 13 12 13 11 10 10 9 9 9 11 13 9 13 13 7 9 12 14 18 12
25 24 22 22 20 18 15 14 11 10 8 6 6 6 8 10 9 11 12 12 13 13 12 12 13 14 13 13 14 13 13 11 11 11 10 11 11 13 12 13 9 10 13 14 15 12 18
25 24 23 21 19 18 16 13 12 10 9 6 6 6 7 10 11 12 12 12 12 13 13 11 13 14 13 14 13 11 12 11 11 9 10 11 11 10 11 12 14 12 14 15 16 20 22
25 24 23 21 19 18 16 14 12 11 9 7 7 8 9 11 10 12 14 14 12 11 12 13 11 11 10 12 12 11 11 11 11 11 11 11 10 9 11 10 11 14 17 19 20 21 23
Wind_Direction
4 3 3 3 2 2 360 357 354 352 348 343 334 324 309 288 274 264 252 243 235 227 222 220 214 210 205 207 219 205 210 197 191 196 202 209 217 226 261 315 330 274 335 334 337 330 310
0 360 359 359 359 358 356 354 352 350 347 341 338 328 314 291 275 262 253 237 229 223 220 218 214 209 208 214 206 205 199 190 192 195 199 205 207 218 240 289 286 317 322 324 348 345 326
358 357 356 355 354 353 352 350 348 347 344 339 336 330 316 294 276 260 249 233 222 218 216 214 208 209 213 207 200 195 190 187 187 192 194 202 217 226 284 271 303 310 319 336 357 348 337
357 356 354 353 352 350 348 347 345 344 342 338 333 328 317 297 274 253 241 229 212 209 206 203 204 206 212 204 203 199 188 185 189 195 204 207 215 237 249 277 268 296 283 354 352 350 0
358 356 353 351 349 347 345 344 343 341 339 336 330 326 316 296 265 242 228 214 200 197 196 195 202 206 207 199 198 194 188 186 186 195 204 209 222 232 230 250 264 212 336 348 349 335 338
357 354 352 349 346 344 342 341 340 338 336 333 329 322 313 289 252 227 209 194 185 188 192 197 205 202 207 191 188 185 184 181 188 187 198 208 211 220 206 230 299 309 328 336 341 344 336
355 352 349 346 344 341 339 337 335 335 333 330 326 319 309 284 239 207 185 178 187 196 201 199 189 202 181 187 185 188 184 186 187 198 205 202 216 205 206 219 266 299 316 327 341 352 345
354 349 346 343 341 339 337 335 333 332 330 329 322 316 299 273 227 200 195 196 191 188 189 203 194 202 188 186 185 186 186 191 197 205 199 199 216 216 216 224 239 280 304 338 355 360 355
355 351 347 343 340 339 337 335 334 331 329 326 322 310 291 255 214 202 201 196 176 185 203 187 190 195 189 188 189 189 192 197 202 207 206 223 166 177 188 206 238 264 298 339 344 346 65
354 351 348 344 341 338 337 336 333 330 326 321 316 304 279 226 210 201 203 195 196 202 200 178 189 183 181 186 192 185 193 192 197 209 209 229 224 210 215 223 247 264 332 306 329 343 11
352 349 347 344 340 337 335 334 332 330 324 318 307 290 254 211 216 199 193 191 192 189 193 179 179 176 176 186 163 188 188 195 211 199 200 165 182 194 213 230 232 258 264 296 306 314 324
350 347 344 342 340 336 333 332 330 328 322 314 299 268 227 227 212 204 193 188 189 207 185 177 176 179 174 176 171 170 187 201 205 208 209 230 217 214 221 233 237 268 272 270 251 266 230
347 345 343 341 338 336 332 330 329 326 320 309 287 245 218 212 205 197 185 185 203 229 181 176 181 176 178 167 156 162 175 186 185 182 198 204 217 216 226 239 247 243 248 236 215 202 33
344 342 341 339 337 336 332 330 329 326 318 303 269 224 220 216 206 190 187 198 216 192 187 173 176 177 180 170 167 171 172 183 199 205 186 201 172 194 191 225 267 206 240 226 193 201 98
340 340 338 337 337 336 335 333 332 330 324 295 238 230 213 207 198 190 197 207 195 193 188 177 171 175 178 180 178 175 188 192 191 199 203 188 190 179 204 206 199 162 201 339 239 189 254
338 337 336 336 336 337 336 336 336 335 329 278 239 214 201 200 193 196 206 207 196 203 198 192 180 190 183 185 187 189 183 190 207 213 216 199 224 207 191 207 204 235 226 217 212 256 280
337 337 337 336 336 337 337 338 339 339 332 257 220 209 203 198 196 200 208 202 206 202 201 195 193 189 194 187 202 198 190 182 202 198 210 222 232 195 224 223 221 211 227 237 276 279 292
335 335 336 336 336 337 338 338 340 341 334 233 221 212 196 196 206 208 211 206 206 207 199 198 199 192 190 191 199 205 208 223 226 220 218 223 245 245 243 227 246 251 264 264 266 266 265
335 334 335 335 335 337 338 339 340 342 335 238 221 207 197 204 213 212 208 212 210 207 197 201 199 206 201 199 209 213 210 225 231 228 230 224 241 245 220 231 238 244 245 264 271 277 275
339 337 335 336 336 337 338 338 338 340 331 225 217 203 201 212 220 221 209 208 205 205 199 200 199 202 200 205 222 217 219 231 239 238 247 241 250 251 262 280 271 256 258 264 270 271 277
343 341 338 338 338 338 338 338 338 339 328 225 219 215 218 210 213 214 215 211 210 205 206 208 204 209 216 219 223 230 240 241 245 247 247 251 255 260 259 266 264 272 269 267 265 269 270
346 345 344 341 341 340 339 339 340 341 328 234 227 227 222 223 216 216 209 210 212 205 216 210 213 215 225 231 247 244 252 252 256 251 252 249 255 259 261 255 260 259 264 266 269 268 270
350 349 346 344 342 342 342 341 342 344 338 256 240 228 227 217 216 217 214 212 211 214 215 218 218 226 228 242 254 258 259 258 258 254 249 252 251 253 261 253 261 260 258 268 270 273 278
350 352 351 348 345 343 342 340 340 340 339 274 256 234 228 220 222 219 220 218 217 216 220 222 227 235 238 247 249 253 247 247 253 249 244 249 245 250 261 254 255 263 270 274 277 274 275
348 350 350 350 347 344 342 337 334 332 329 277 256 237 231 230 229 220 218 218 217 218 222 225 230 236 238 240 243 239 238 242 242 247 238 245 244 249 257 255 261 256 268 277 283 275 276
346 347 348 348 348 347 345 342 337 331 329 284 249 245 235 237 221 229 225 225 225 224 225 229 230 236 235 242 239 242 240 244 236 232 245 240 247 252 254 267 270 276 277 286 283 278 285
347 346 345 346 345 344 342 340 337 333 327 299 249 256 242 239 234 231 226 228 230 231 234 228 230 232 236 237 240 241 239 249 241 240 238 242 255 258 257 265 265 275 285 285 276 291 295
347 346 345 343 342 342 340 336 332 328 321 302 259 260 257 245 245 234 231 229 228 231 234 230 232 232 234 236 240 235 245 237 241 250 249 252 259 256 263 268 265 284 281 281 297 295 298
345 346 346 345 342 340 339 334 328 320 314 301 264 265 267 247 249 240 236 234 232 234 236 230 239 232 235 233 236 238 238 239 243 242 248 253 263 273 269 279 281 285 288 292 295 296 298